Weather History for Tapachula Airport, Mexico

Change the Weather History Date:

Wednesday, October 31, 2012

  Actual Average Record
Temperature  
Mean Temperature 80 °F -  
Max Temperature 87 °F 86 °F 91 °F (1997)
Min Temperature 73 °F 73 °F 71 °F (2005)
Cooling Degree Days 15    
Growing Degree Days 30 (Base 50)    
Moisture  
Dew Point 73 °F    
Average Humidity 81    
Maximum Humidity 94    
Minimum Humidity 66    
Precipitation  
Precipitation 0.00 in - - ()
Sea Level Pressure  
Sea Level Pressure 29.90 in    
Wind  
Wind Speed 3 mph ()    
Max Wind Speed 14 mph    
Max Gust Speed -    
Visibility 9.8 miles    
Events      
Averages and records for this station are not official NWS values.
T = Trace of Precipitation, MM = Missing Value Source: Averaged Metar Reports

Daily Weather History Graph

Daily Weather History Graph

Search for Another Location

Airport:

Trip Planner

Search our weather history database for the weather conditions in past years. The results will help you decide how hot, cold, wet, or windy it might be!

Date:

Astronomy

Oct. 31, 2012 Rise Set
Actual Time 6:04 AM CST 5:40 PM CST
Civil Twilight 5:42 AM CST 6:02 PM CST
Nautical Twilight 5:17 AM CST 6:28 PM CST
Astronomical Twilight 4:52 AM CST 6:53 PM CST
Moon 7:09 PM CST (10/31) 7:30 AM CST (10/31)
Length of Visible Light 12h 20m
Length of Day
11h 36m
Full, 97% of the Moon is Illuminated
Oct 31
Full
Nov 6
Last Quarter
Nov 13
New
Nov 20
First Quarter
Nov 28
Full

Hourly Weather History & Observations

Time (CST) Temp. Heat Index Dew Point Humidity Pressure Visibility Wind Dir Wind Speed Gust Speed Precip Events Conditions
12:40 AM 75.2 °F - 71.6 °F 89% 29.95 in 10.0 mi Calm Calm - N/A   Scattered Clouds
1:40 AM 75.2 °F - 71.6 °F 89% 29.93 in 10.0 mi Calm Calm - N/A   Scattered Clouds
2:40 AM 75.2 °F - 71.6 °F 89% 29.91 in 10.0 mi Calm Calm - N/A   Scattered Clouds
3:40 AM 75.2 °F - 71.6 °F 89% 29.95 in 10.0 mi Calm Calm - N/A   Scattered Clouds
5:40 AM 75.2 °F - 71.6 °F 89% 29.85 in 10.0 mi Calm Calm - N/A   Scattered Clouds
6:40 AM 77.0 °F - 71.6 °F 83% 29.94 in 10.0 mi Calm Calm - N/A   Scattered Clouds
7:40 AM 75.2 °F - 71.6 °F 89% 29.96 in 10.0 mi Calm Calm - N/A   Mostly Cloudy
8:41 AM 82.4 °F 89.5 °F 75.2 °F 79% 29.92 in 10.0 mi Calm Calm - N/A   Mostly Cloudy
9:41 AM 86.0 °F 96.9 °F 77.0 °F 74% - 10.0 mi Calm Calm - N/A   Mostly Cloudy
10:59 AM 86.0 °F 95.1 °F 75.2 °F 70% 29.98 in 10.0 mi Calm Calm - N/A   Overcast
11:40 AM 87.8 °F 99.7 °F 77.0 °F 70% 29.90 in 8.0 mi WSW 9.2 mph - N/A   Mostly Cloudy
12:40 PM 87.8 °F 97.6 °F 75.2 °F 66% 29.93 in 8.0 mi WSW 11.5 mph - N/A   Mostly Cloudy
1:46 PM 86.0 °F 95.1 °F 75.2 °F 70% 29.91 in 10.0 mi WSW 11.5 mph - N/A   Mostly Cloudy
2:40 PM 86.0 °F 95.1 °F 75.2 °F 70% 29.89 in 10.0 mi WSW 11.5 mph - N/A   Mostly Cloudy
2:54 PM 86.0 °F 95.1 °F 75.2 °F 70% 29.83 in 10.0 mi WSW 11.5 mph - N/A   Mostly Cloudy
3:40 PM 86.0 °F 96.9 °F 77.0 °F 74% 29.88 in 10.0 mi WSW 13.8 mph - N/A   Mostly Cloudy
4:40 PM 82.4 °F 88.2 °F 73.4 °F 74% 29.89 in 10.0 mi Calm Calm - N/A   Mostly Cloudy
5:45 PM 77.0 °F - 71.6 °F 83% 29.76 in 10.0 mi East 13.8 mph - N/A   Mostly Cloudy
6:40 PM 75.2 °F - 71.6 °F 89% 29.92 in 10.0 mi East 6.9 mph - N/A   Mostly Cloudy
7:40 PM 73.4 °F - 71.6 °F 94% 29.94 in 10.0 mi Calm Calm - N/A   Scattered Clouds
8:40 PM 73.4 °F - 69.8 °F 88% 29.77 in 10.0 mi East 8.1 mph - N/A   Scattered Clouds
9:40 PM 73.4 °F - 69.8 °F 88% 29.98 in 10.0 mi Calm Calm - N/A   Scattered Clouds
10:40 PM 77.0 °F - 69.8 °F 78% 29.97 in 10.0 mi East 8.1 mph - N/A   Scattered Clouds
11:40 PM 73.4 °F - 69.8 °F 88% 29.82 in 10.0 mi Calm Calm - N/A   Scattered Clouds